GFSSE_sfc_temp_114.txt.gz
Temp
93 91 74 75 75 75 75 75 75 76 76 77 76 76 76 76 76 76 76 77 77 78 79 79 79 79 79 79 78 77 76 76 76 76 77 78 78 77 77 76 77 82 76
96 89 73 74 75 75 75 75 75 76 76 77 76 76 76 76 76 76 76 77 78 79 79 79 79 79 79 78 76 76 75 75 75 75 76 77 78 77 77 76 77 80 76
92 89 82 74 75 75 75 75 75 76 77 77 76 76 76 76 76 76 76 76 77 78 79 79 79 79 78 76 75 75 75 74 74 75 76 85 84 77 76 75 75 75 75
92 90 87 73 74 75 75 75 75 76 76 76 76 76 76 76 76 76 76 76 77 78 79 79 79 78 76 75 74 74 74 74 74 75 84 85 85 76 76 75 75 75 75
91 92 88 73 73 74 74 75 75 75 75 75 76 76 76 76 76 76 75 76 77 78 79 79 78 76 74 73 73 73 73 73 73 77 85 86 83 78 76 75 74 74 76
91 93 77 72 73 74 74 75 75 74 74 74 75 76 76 76 76 76 75 76 77 78 78 78 76 74 73 72 72 72 72 72 72 90 86 81 83 76 76 76 74 74 74
90 91 83 71 72 74 75 75 74 74 73 74 74 75 76 76 76 75 74 75 76 77 77 76 74 73 72 71 72 71 71 72 87 86 82 83 82 76 75 75 73 73 73
87 87 85 74 72 73 73 73 73 73 73 73 74 74 75 75 74 74 74 74 75 75 74 73 73 72 71 71 71 70 70 71 83 83 82 82 75 75 76 75 73 72 72
85 85 82 78 78 71 71 71 71 72 72 72 73 73 73 72 72 73 74 74 74 74 74 72 72 71 71 71 70 69 69 71 88 87 81 82 73 75 76 74 73 72 72
81 83 83 78 80 83 81 70 70 71 71 71 72 72 71 71 72 72 72 73 73 73 73 72 71 71 71 70 69 68 68 69 87 89 85 86 74 75 76 75 74 73 72
78 79 79 78 77 81 85 80 71 71 71 71 73 71 72 84 82 80 77 72 72 71 71 71 70 70 69 69 69 68 68 86 88 89 88 72 73 75 75 74 73 72 72
80 78 77 77 76 77 86 84 83 83 83 83 83 82 84 84 84 85 78 70 69 69 70 70 69 69 70 83 79 70 83 87 87 87 85 70 72 75 74 73 72 72 72
85 82 79 77 78 76 83 79 83 83 85 84 83 84 84 83 82 84 83 80 80 72 80 76 76 81 82 85 85 82 85 85 87 87 80 69 72 75 74 73 72 72 71
85 84 82 80 79 78 78 77 78 83 79 79 81 83 84 79 83 82 85 85 82 82 82 81 81 81 81 82 84 83 83 85 85 86 77 67 69 74 74 74 72 72 71
81 84 84 82 81 80 78 78 77 80 84 81 78 77 82 81 78 80 85 85 85 83 82 81 81 79 78 79 81 82 82 83 83 85 84 67 66 69 73 73 73 72 71
82 82 83 83 81 82 80 78 79 80 84 79 77 77 77 81 80 77 82 84 85 83 82 80 81 80 79 80 78 79 81 83 82 82 86 78 65 65 70 72 72 73 72
84 84 81 81 83 81 80 80 80 81 82 81 76 76 74 75 80 77 76 82 84 83 80 79 78 79 78 78 77 78 80 80 80 81 83 83 76 63 65 69 70 69 72
85 83 83 81 81 81 80 81 82 83 82 83 79 81 78 73 76 77 75 75 80 79 78 79 77 76 78 76 76 75 77 78 79 80 81 82 81 80 66 63 65 66 69
83 81 80 79 79 78 80 81 81 81 82 84 83 83 81 79 78 79 78 74 75 73 74 78 78 75 75 74 75 75 76 76 78 79 79 79 78 76 74 65 63 63 65
77 76 76 78 77 78 80 81 83 81 82 83 84 85 83 81 80 79 82 77 73 70 71 73 74 76 76 74 76 76 77 77 77 79 78 78 77 72 67 71 65 63 62
70 70 71 71 72 75 78 78 79 77 79 81 83 83 83 82 80 79 79 77 70 69 70 71 70 70 71 74 70 69 73 72 73 77 78 77 76 75 69 67 65 65 64
64 66 66 67 69 71 76 79 81 81 80 80 83 83 82 80 80 79 78 74 70 69 68 69 68 66 67 69 65 67 62 67 72 74 75 74 72 71 66 66 65 65 65
60 61 62 64 66 67 69 74 79 81 81 79 78 77 80 80 79 78 76 72 69 70 66 67 69 67 64 65 72 72 65 65 71 74 72 73 71 67 65 65 64 64 65
55 57 58 60 62 64 67 69 71 78 77 79 77 76 78 78 77 77 74 72 70 69 67 67 69 69 67 63 65 73 76 76 66 64 71 70 70 68 65 64 64 64 65
55 54 54 56 57 60 63 65 69 71 81 82 80 77 76 73 72 72 72 72 69 70 68 67 67 68 68 68 65 66 71 73 72 64 65 69 68 71 69 64 63 63 63
54 52 51 51 53 54 55 60 64 68 74 80 80 77 77 72 68 69 69 70 70 69 68 67 68 68 68 68 67 73 71 69 67 65 63 67 69 71 66 64 63 63 63

GFSSE_sfc_temp_117.txt.gz
Temp
101 89 74 75 76 76 76 76 76 76 76 76 76 76 76 76 76 76 76 77 78 79 80 79 79 79 79 79 78 77 76 76 76 76 77 78 78 78 77 77 78 83 76
99 91 74 75 75 76 76 75 76 76 76 76 76 76 76 76 76 76 76 77 78 79 80 79 79 79 79 78 77 76 76 75 75 76 76 78 78 78 78 77 78 79 76
96 92 83 74 75 75 76 76 76 76 77 76 76 76 76 76 76 76 76 76 78 79 79 79 79 79 78 77 75 75 75 75 75 75 76 83 83 77 77 75 75 75 75
96 94 89 74 74 75 75 75 76 77 77 76 76 76 76 76 76 76 76 76 77 78 79 79 79 78 76 75 75 74 74 74 74 75 83 82 84 76 77 75 75 76 75
95 96 90 73 74 75 75 75 76 76 76 76 76 76 76 76 76 76 76 76 77 78 79 79 79 76 74 74 74 74 74 74 74 77 84 81 80 78 76 76 75 74 75
95 96 76 72 73 74 75 75 75 75 74 75 75 76 76 76 76 76 75 76 77 78 79 78 77 74 73 73 73 73 73 73 72 85 85 81 81 76 76 76 75 74 74
94 95 84 71 72 74 75 75 74 74 74 74 75 75 76 76 76 75 75 75 76 77 77 76 74 73 72 72 72 72 72 72 83 87 85 82 80 76 77 75 74 73 74
92 93 86 74 72 73 74 74 73 73 73 74 74 74 75 75 74 74 74 74 75 75 75 74 73 72 72 72 72 71 71 71 82 87 81 79 75 76 77 75 74 73 73
89 90 84 82 78 71 71 71 71 72 72 73 73 73 74 73 73 74 74 74 74 74 74 73 72 72 72 71 71 70 69 71 81 88 82 80 74 75 76 74 74 73 72
86 87 86 82 83 82 82 71 71 71 71 72 72 72 72 72 72 73 73 73 74 73 73 72 72 71 71 70 69 69 69 70 82 84 87 85 74 75 76 74 74 72 72
83 81 82 81 82 85 86 80 72 71 71 71 73 71 72 83 81 79 77 72 72 72 72 71 71 70 70 69 69 69 69 84 85 86 88 72 74 76 75 74 73 72 72
87 81 77 77 78 85 89 84 83 83 83 82 83 81 83 84 84 85 79 71 71 70 70 70 70 69 70 80 77 70 80 83 82 83 77 71 74 75 75 73 72 72 72
90 87 80 76 76 78 85 88 86 87 85 84 84 84 83 86 86 85 85 82 80 72 78 75 74 78 80 83 84 81 82 82 80 81 73 71 73 75 75 74 72 72 72
87 88 85 81 78 78 83 87 87 89 87 86 85 84 85 85 84 85 85 83 81 83 81 80 80 80 82 83 79 80 82 79 80 80 71 69 71 74 75 74 73 72 72
86 86 85 84 81 79 78 82 81 83 86 87 87 86 86 86 84 85 86 86 83 85 82 81 79 80 80 82 82 80 80 81 79 83 79 68 70 71 74 75 74 73 72
87 87 86 85 84 81 80 81 80 82 87 84 85 84 85 86 83 85 86 87 87 88 82 83 81 76 78 79 79 81 80 82 78 79 78 75 67 68 70 73 73 73 72
87 88 86 85 85 83 80 82 80 83 84 87 85 82 77 83 84 82 81 86 87 89 81 82 81 78 75 77 78 80 80 81 78 78 81 77 74 64 65 69 71 70 71
87 86 86 86 84 83 84 84 83 83 83 86 86 83 80 76 83 82 77 81 87 87 84 78 78 78 73 73 75 78 77 79 78 79 82 77 73 75 66 65 67 67 67
84 81 80 80 80 81 81 84 83 83 83 85 86 84 82 80 80 83 81 77 82 85 83 79 75 76 76 77 75 74 76 78 78 79 79 77 74 77 77 64 64 64 65
76 76 76 77 77 78 79 80 84 84 84 82 84 85 82 83 80 80 82 79 77 80 79 80 76 75 75 76 76 76 75 75 78 78 78 77 78 76 78 74 70 65 62
71 70 71 71 73 74 77 78 81 81 83 83 82 84 83 84 83 80 82 81 77 74 74 75 77 75 73 75 72 74 72 74 74 77 81 81 75 76 75 72 71 68 63
66 66 67 67 69 71 74 76 79 82 85 85 85 83 84 84 83 82 81 83 78 75 70 71 72 72 75 76 71 68 63 67 74 77 79 80 77 78 74 74 72 69 68
62 63 63 64 65 67 68 71 74 77 78 82 81 81 83 83 83 81 81 82 81 76 73 70 69 69 67 71 75 71 66 67 74 75 74 75 74 71 75 71 69 69 67
60 62 62 61 61 63 65 65 67 70 74 82 82 81 81 81 82 82 81 81 80 76 73 71 71 69 68 65 68 74 76 79 73 69 72 74 76 72 72 71 68 67 67
59 58 58 57 58 60 61 61 62 65 71 76 78 80 79 80 80 81 80 79 77 75 74 72 69 68 69 68 66 70 73 76 75 72 67 68 74 74 74 72 71 67 67
55 54 53 53 55 57 57 57 56 58 63 69 73 77 76 77 78 78 78 76 74 73 73 73 70 69 68 68 68 71 71 70 72 69 67 69 67 71 75 75 68 67 67

GFSSE_sfc_temp_120.txt.gz
Temp
87 81 75 76 76 76 76 75 75 75 76 76 76 76 76 76 76 76 76 77 77 79 79 79 79 79 79 79 77 77 76 76 75 76 77 78 78 78 77 77 77 77 76
90 82 74 75 76 76 76 75 75 76 76 76 76 76 76 76 76 76 76 77 77 79 79 79 79 79 79 78 76 76 75 75 75 75 77 78 78 78 78 77 76 76 75
92 84 79 74 75 76 76 76 76 76 76 76 76 76 76 76 76 76 76 77 77 79 79 79 79 79 78 76 75 75 75 75 75 75 77 77 76 77 77 75 75 75 75
93 85 83 74 75 75 75 75 76 77 76 76 76 76 76 76 76 76 76 76 77 78 79 79 79 79 76 75 75 75 75 74 74 75 76 79 79 77 76 75 75 75 75
94 89 84 73 74 75 75 75 75 76 75 75 75 76 76 76 76 76 75 76 77 78 79 79 79 76 75 74 74 74 74 74 74 75 80 77 77 77 76 75 75 75 75
94 93 72 72 73 74 75 75 75 75 74 75 75 76 76 76 76 76 75 76 77 77 78 79 77 75 73 73 73 73 73 73 73 74 73 77 76 75 76 76 75 74 74
88 82 78 72 73 74 75 75 75 74 74 74 75 75 75 76 76 75 75 75 76 77 77 76 75 74 73 72 73 72 72 71 76 70 73 74 73 76 77 75 74 74 73
87 84 78 73 73 73 74 74 73 73 73 74 74 74 75 75 74 74 74 75 75 75 75 74 73 73 72 72 72 71 70 70 76 76 75 72 74 75 76 75 74 73 72
86 84 79 77 75 72 72 72 71 72 73 73 73 73 74 73 73 74 74 74 74 74 74 73 72 72 72 72 71 70 69 70 70 72 78 73 74 75 75 75 74 72 72
84 84 80 79 78 77 75 71 71 71 72 72 72 72 72 72 72 73 73 73 73 73 73 72 72 71 71 71 70 69 69 69 71 71 73 74 74 76 75 74 74 72 72
81 81 80 79 79 78 79 75 71 72 72 71 72 72 70 76 74 74 74 72 73 71 72 72 71 70 70 70 69 69 69 72 76 69 70 71 74 76 75 74 72 72 72
81 78 77 77 77 79 84 77 76 76 75 75 76 74 76 77 77 79 75 70 71 70 70 70 70 69 69 72 69 68 70 74 76 72 70 70 74 76 75 74 72 72 72
84 79 77 75 74 77 80 78 78 78 77 76 77 76 76 78 77 77 76 74 72 69 72 70 69 71 72 74 73 71 72 74 73 74 71 70 73 76 75 74 73 72 71
80 81 77 76 74 74 77 76 79 79 77 77 77 77 76 77 76 77 77 75 74 73 73 72 71 71 72 74 75 74 74 74 73 70 69 69 72 74 75 75 74 72 71
81 81 79 77 74 74 75 74 74 78 78 78 77 78 78 77 76 77 78 77 76 75 74 72 73 73 73 74 73 75 76 75 75 70 68 68 69 72 75 75 74 73 71
81 80 80 79 77 76 74 73 74 74 75 78 78 78 77 77 76 77 77 77 76 78 76 74 73 73 73 74 73 73 75 75 75 73 71 67 67 69 71 74 74 74 72
80 81 78 78 79 77 75 73 73 74 75 74 77 77 78 77 77 77 77 76 77 78 76 73 74 73 72 73 72 72 74 74 74 72 72 70 66 65 67 70 71 72 71
75 73 73 75 72 71 72 74 73 73 73 76 75 78 77 75 76 75 75 74 76 75 77 73 73 70 70 70 70 69 71 73 73 73 73 72 68 70 64 66 68 70 69
71 70 69 69 70 70 70 72 73 74 73 75 78 77 75 75 76 75 76 75 74 74 75 75 73 71 70 69 70 70 71 70 70 74 73 74 68 68 67 64 65 66 66
68 67 67 68 67 67 69 70 72 73 76 76 77 79 77 76 75 75 75 74 74 73 72 75 72 70 71 70 72 71 68 68 70 69 72 74 72 70 66 65 63 62 63
65 64 64 63 64 65 66 66 68 69 74 76 78 78 77 77 75 74 75 74 73 73 72 73 72 69 69 69 68 67 68 67 68 68 71 70 72 71 70 66 65 64 61
62 61 61 63 62 62 64 65 65 65 68 70 76 77 78 76 76 75 74 74 73 72 72 70 72 69 69 69 66 65 61 63 66 69 70 70 71 71 69 69 66 64 64
57 58 59 60 60 60 60 62 64 66 67 68 70 74 77 77 76 76 74 74 75 73 71 71 70 70 67 68 69 64 60 58 62 67 68 70 67 66 67 67 66 66 65
55 55 56 56 56 58 58 57 57 58 59 63 66 71 76 77 77 77 75 75 75 74 72 70 71 71 68 66 67 71 68 66 61 58 65 68 67 66 66 65 65 65 65
52 50 50 51 52 52 54 55 54 54 57 61 63 65 68 72 75 76 74 74 74 73 72 70 69 69 70 69 68 67 67 68 65 61 57 60 65 67 67 67 65 64 66
48 46 46 46 47 48 49 50 51 51 52 53 56 59 63 66 71 74 75 73 74 72 71 70 68 68 68 69 69 69 67 65 65 64 59 59 60 63 66 67 66 65 64

GFSSE_sfc_temp_123.txt.gz
Temp
77 75 74 75 76 75 75 75 75 75 75 76 76 76 76 76 76 76 76 76 77 78 79 78 78 78 78 78 77 76 75 76 75 76 76 78 78 78 77 76 76 77 76
79 76 73 75 75 75 75 75 75 75 75 76 76 76 76 76 76 76 76 76 77 78 79 78 78 78 78 77 76 75 75 74 74 75 76 78 78 78 78 76 75 75 75
79 77 76 73 75 75 75 75 75 76 76 76 76 76 76 76 76 76 76 76 77 78 79 78 78 78 77 76 75 75 75 74 74 75 75 73 74 77 77 75 74 75 75
81 77 75 74 74 75 75 75 75 76 76 76 76 76 76 76 76 76 76 76 77 78 78 78 78 78 76 75 74 74 74 74 74 74 74 74 76 76 76 75 75 75 75
81 80 77 73 73 74 75 75 75 75 75 75 75 76 76 76 76 76 75 75 76 77 78 79 78 76 75 74 73 74 74 73 73 73 75 73 72 76 76 75 75 75 74
81 82 72 72 73 74 74 74 75 74 73 74 74 75 76 76 76 75 75 75 76 77 78 78 76 75 73 73 73 73 71 72 71 71 72 75 73 76 76 75 74 74 73
76 75 74 71 73 74 74 75 74 74 73 73 74 74 75 75 75 75 74 75 75 76 77 76 75 73 73 72 73 72 70 70 70 69 70 71 72 76 77 75 74 73 73
76 75 74 73 73 73 73 73 73 73 73 73 73 74 75 74 74 74 74 74 75 75 74 74 73 73 72 72 72 71 70 69 70 68 67 69 74 76 76 75 73 73 72
76 74 71 72 73 72 71 71 71 72 72 73 73 73 73 73 73 73 73 74 74 73 73 73 72 72 72 71 71 70 68 69 69 69 71 68 74 76 76 75 74 72 72
76 73 72 71 71 70 70 70 71 71 71 72 72 72 71 71 72 72 72 73 73 73 72 72 71 71 71 71 70 69 68 69 69 69 70 72 74 76 76 75 73 72 72
75 72 72 71 71 70 70 72 71 71 71 71 71 71 69 72 72 72 72 71 72 71 71 71 71 70 70 70 69 69 68 68 71 68 66 70 74 76 76 74 73 72 72
70 71 72 72 71 72 77 70 69 71 71 71 71 72 71 71 71 73 72 70 71 69 70 70 70 69 69 67 67 68 67 69 70 69 68 70 74 76 75 73 72 72 71
70 72 72 72 72 73 74 70 70 69 69 70 71 71 71 73 72 72 72 71 70 69 69 69 68 68 68 68 67 67 68 69 68 70 71 69 73 75 75 74 72 72 71
73 71 71 72 71 71 71 71 72 72 70 70 71 71 71 72 71 72 71 70 69 69 68 68 67 67 67 69 69 68 68 69 68 67 68 69 71 75 75 75 73 73 72
72 72 70 71 70 71 72 69 70 72 71 73 72 73 73 71 70 71 71 71 70 69 70 68 68 68 68 68 69 67 70 70 69 68 67 68 69 72 75 75 75 74 73
67 67 68 67 68 69 68 67 68 69 71 71 74 75 74 74 71 71 71 72 71 71 71 70 69 68 68 68 68 69 67 70 69 68 67 67 67 69 71 74 74 74 73
65 66 66 67 67 65 64 67 68 69 71 68 71 73 75 74 74 72 72 70 72 73 71 71 69 69 67 68 68 69 70 70 69 68 67 66 66 66 67 70 72 73 73
64 63 64 66 64 64 64 63 63 66 67 70 71 70 75 75 75 72 73 72 72 73 72 71 70 68 68 68 67 69 69 68 69 69 68 67 66 68 65 66 68 70 71
61 62 61 62 61 61 63 64 65 63 64 67 69 71 73 72 74 70 73 73 70 71 71 72 69 70 68 66 67 69 66 66 67 70 69 67 66 66 66 64 65 66 68
58 59 59 60 60 60 60 61 62 63 62 63 68 69 72 75 75 74 69 68 70 67 68 71 70 69 69 68 70 69 66 66 66 66 67 70 69 67 66 64 64 64 64
55 55 56 56 57 57 57 56 56 56 60 60 61 66 70 73 74 71 72 67 68 70 69 68 69 67 66 67 64 62 63 65 65 66 66 67 69 69 66 66 63 64 63
51 51 51 51 52 53 54 55 56 56 58 60 63 63 65 69 72 72 69 71 70 70 68 68 69 67 67 67 64 62 59 61 64 66 65 67 69 66 65 65 63 63 62
46 46 47 47 48 49 51 52 53 55 55 55 58 60 63 67 71 71 72 71 71 69 69 70 69 69 66 66 66 62 57 56 59 62 65 66 66 66 67 65 63 63 62
43 44 44 45 44 47 48 46 45 46 48 52 53 57 58 61 65 69 73 72 72 71 69 69 70 69 67 65 66 69 62 61 57 55 61 66 65 64 64 64 63 63 63
42 41 41 42 43 44 43 44 42 43 48 50 51 51 54 57 61 65 67 71 70 69 70 69 70 67 68 68 67 67 65 60 61 58 55 58 61 64 65 64 65 64 64
39 39 38 39 40 41 41 41 40 40 44 46 48 47 49 52 56 61 64 66 71 70 69 70 69 69 67 66 68 68 67 65 62 58 56 58 61 60 65 64 63 64 64

GFSSE_sfc_temp_126.txt.gz
Temp
74 74 74 75 75 75 75 74 74 75 76 76 76 76 76 76 76 76 76 76 77 78 79 78 78 78 78 77 77 76 76 76 75 76 76 78 78 77 77 75 75 76 76
77 74 73 74 75 75 75 74 74 75 76 76 76 76 76 76 76 76 76 76 77 78 79 78 78 78 77 77 76 75 75 74 74 75 76 78 78 77 77 75 75 75 75
76 75 75 74 75 75 75 75 75 75 76 76 76 76 76 76 76 76 76 76 77 78 78 78 78 78 77 75 75 75 75 74 74 74 74 72 73 77 76 75 75 75 75
76 74 74 73 74 75 75 75 75 76 76 75 76 76 76 76 76 76 76 76 76 77 78 78 78 77 76 74 74 74 74 74 74 74 72 72 76 76 76 75 75 75 75
76 76 75 73 73 74 74 74 74 75 74 75 75 76 76 76 76 76 75 75 76 77 78 78 78 76 74 73 73 73 73 73 71 74 70 70 71 76 76 76 75 74 74
76 77 71 71 73 74 74 74 74 74 73 74 74 75 76 76 76 75 74 75 76 77 77 78 76 74 73 72 72 72 72 71 71 70 70 72 72 76 76 74 74 74 73
73 73 73 70 72 74 74 74 74 73 73 73 74 74 75 75 75 74 74 74 75 76 76 76 74 73 72 72 72 70 70 71 69 69 68 70 71 75 76 74 74 73 73
74 73 72 72 72 72 73 73 72 72 72 73 73 74 74 74 74 74 74 74 74 74 74 74 73 72 72 72 71 70 69 70 70 68 67 68 72 75 75 74 74 73 73
73 71 70 71 72 71 71 71 70 71 72 72 72 72 73 72 72 73 73 73 73 73 73 73 72 72 72 71 71 69 68 68 67 66 69 69 74 76 75 75 73 72 72
71 70 69 69 70 70 71 70 70 70 71 71 71 71 71 71 71 72 72 72 73 73 72 72 71 71 71 70 70 68 68 68 68 68 68 68 74 76 76 74 73 72 72
71 70 69 69 69 69 70 71 70 71 70 70 71 70 69 71 71 72 71 71 71 71 71 71 70 70 69 69 69 68 67 67 67 67 67 70 74 76 76 74 72 72 71
68 69 70 69 69 69 74 70 69 70 72 72 71 71 72 71 70 72 71 69 70 69 70 70 69 69 68 67 67 68 66 67 68 67 66 70 73 76 76 73 72 72 71
69 69 70 70 69 69 70 68 68 68 70 71 72 72 72 71 70 70 70 70 70 69 69 69 68 68 67 67 66 66 66 67 67 67 69 68 72 76 76 74 72 72 71
63 64 66 66 68 68 69 68 68 69 68 70 71 71 71 70 70 70 70 69 69 70 69 69 68 68 67 67 67 66 66 66 66 66 65 67 70 74 75 74 73 73 72
61 63 62 62 61 63 64 66 68 68 68 69 70 70 71 70 70 70 70 69 70 70 69 69 68 67 67 67 67 67 67 66 67 66 65 66 68 72 75 74 74 74 73
61 60 62 61 61 60 59 60 61 66 68 68 69 72 70 71 71 70 70 69 69 70 69 69 69 67 66 66 66 67 67 67 67 66 66 66 66 68 71 74 74 74 74
58 59 59 60 60 59 58 58 58 59 63 65 68 70 71 71 70 71 70 70 70 70 69 68 67 67 66 66 66 67 67 67 67 67 67 66 66 65 67 70 72 73 73
56 56 58 60 57 57 58 57 57 57 58 60 63 66 69 70 71 68 69 70 71 70 69 68 68 66 65 65 65 66 67 67 67 68 67 66 66 67 65 67 69 70 71
53 53 53 54 53 54 56 56 56 55 54 56 57 60 64 68 69 68 70 70 68 69 69 68 67 67 66 65 65 65 67 67 66 68 67 66 65 66 66 64 66 66 68
49 50 50 50 49 51 52 53 54 54 56 56 57 58 62 62 65 68 69 67 67 68 67 68 68 68 68 67 68 66 64 66 66 65 66 68 66 66 65 65 65 65 64
45 45 46 45 46 47 47 46 48 49 52 54 56 58 59 62 62 63 68 66 67 68 68 68 67 66 66 67 63 61 61 63 65 65 67 66 66 66 65 65 65 65 64
42 42 43 43 43 44 46 46 47 47 50 51 54 55 57 58 59 60 61 67 67 67 67 66 66 66 66 65 64 61 58 60 62 64 65 66 65 67 65 65 64 64 64
39 39 41 41 41 43 43 43 44 45 46 47 49 51 54 55 55 57 59 62 66 65 63 67 67 66 65 65 65 60 58 59 59 61 63 65 65 65 66 65 63 63 63
37 38 39 39 40 42 41 40 39 38 38 42 44 48 50 52 53 55 58 60 61 65 65 67 68 67 68 65 64 66 62 60 57 56 60 64 65 65 64 63 63 63 63
37 36 37 38 39 40 40 39 38 37 39 41 42 44 47 49 50 52 55 56 59 62 66 67 67 66 68 67 67 68 61 59 59 56 54 60 63 66 66 64 63 63 62
36 36 36 37 37 38 38 38 36 35 36 37 39 40 42 45 47 50 52 55 59 61 62 65 68 68 67 68 67 68 67 63 60 57 54 57 60 62 64 64 63 63 63

GFSSE_sfc_temp_129.txt.gz
Temp
73 73 74 75 75 75 74 74 74 75 75 76 76 76 76 76 76 76 76 76 77 78 79 78 78 78 78 78 77 76 76 75 75 76 76 77 78 77 76 75 75 75 76
75 73 73 74 75 75 75 74 74 75 76 76 76 76 75 75 75 76 76 76 77 78 78 78 78 78 77 76 75 75 75 74 74 75 76 77 78 77 76 75 74 74 75
73 73 73 73 74 75 75 75 75 75 76 76 76 75 75 76 75 75 75 76 77 78 78 78 78 78 77 75 75 74 74 74 74 74 75 71 72 77 76 74 74 75 75
74 73 73 73 74 74 74 74 75 75 76 75 76 76 76 76 75 75 75 75 76 77 78 78 78 77 75 74 74 74 74 73 73 73 71 71 75 76 76 75 75 75 75
73 73 74 73 73 74 74 74 74 74 74 75 75 76 76 76 76 75 75 75 76 77 78 78 77 75 74 73 73 73 73 73 72 72 69 70 70 75 76 75 75 74 74
73 74 71 71 72 74 74 74 74 74 73 73 74 75 76 76 76 75 74 75 76 77 77 77 76 74 72 72 72 72 72 72 72 70 69 71 70 75 76 74 73 73 73
72 72 71 70 72 73 74 74 73 73 73 73 74 74 75 75 75 74 74 74 75 75 76 76 74 73 72 72 72 71 70 70 69 68 68 69 70 75 76 75 73 73 73
71 71 71 72 72 72 73 73 72 72 72 72 73 73 74 74 74 73 73 73 74 74 74 74 73 72 72 72 71 69 69 70 70 67 67 67 71 75 76 75 73 73 73
70 70 70 70 71 71 70 70 70 71 71 72 72 72 73 72 72 73 73 73 73 73 73 72 72 71 71 71 71 69 68 69 65 65 68 67 73 75 76 75 74 73 72
70 69 68 68 69 69 70 69 69 70 70 71 71 71 70 71 71 72 72 72 73 72 72 72 71 71 71 70 69 68 68 68 66 66 67 67 72 76 76 74 74 72 72
70 69 68 68 68 69 69 70 70 70 70 70 70 70 68 70 70 71 70 70 71 71 71 71 70 70 69 69 69 68 68 66 66 66 66 69 72 76 75 74 73 72 71
59 66 68 67 67 68 72 69 69 70 71 71 70 69 71 72 69 71 70 69 70 69 70 70 69 69 68 67 67 68 66 66 66 66 65 68 72 76 75 73 72 72 71
60 59 60 64 67 68 68 68 67 68 71 70 72 72 72 72 71 69 68 68 68 68 69 68 67 67 67 66 66 66 65 65 65 65 67 67 72 75 76 74 72 72 71
58 59 58 58 59 61 61 63 68 68 69 70 70 71 70 70 70 71 71 70 70 70 70 70 68 68 66 66 66 66 65 65 64 65 65 67 69 74 76 74 73 72 71
56 57 57 56 55 57 57 57 59 61 63 68 69 71 70 70 70 71 71 71 71 71 70 69 70 68 67 66 66 66 65 65 65 65 64 66 67 71 75 74 74 73 72
55 55 57 56 55 55 54 55 55 57 61 63 64 66 69 69 68 70 70 70 70 72 71 70 69 68 67 66 65 66 66 65 65 65 64 65 65 68 71 74 74 74 74
52 52 52 53 52 53 53 53 53 54 57 58 61 62 64 63 67 70 70 69 69 72 70 69 69 68 67 66 65 65 66 65 65 65 64 65 66 65 67 70 72 73 73
48 47 49 51 48 49 51 52 54 52 52 54 55 58 61 62 62 62 68 68 68 68 68 69 68 67 67 66 65 64 66 64 65 65 65 65 66 68 65 66 69 70 71
45 45 45 46 45 46 48 49 50 50 50 51 52 54 57 59 62 61 65 66 66 68 68 68 67 67 66 66 65 64 64 65 65 67 64 64 64 65 66 65 66 66 68
42 43 44 44 44 44 45 46 47 48 48 50 50 51 55 56 60 60 61 61 63 64 67 68 67 67 67 67 66 65 64 65 64 66 66 66 65 65 65 65 65 66 64
41 40 41 40 41 41 42 40 42 43 44 46 49 51 52 54 56 57 58 59 58 64 65 65 67 66 65 65 62 61 61 62 62 65 67 66 65 65 64 64 65 66 65
38 38 39 39 39 40 41 40 41 41 43 44 47 48 50 51 52 53 53 55 58 61 63 64 65 65 66 65 62 61 59 61 62 64 65 66 65 65 64 64 64 65 66
35 36 37 37 38 39 40 40 39 40 41 41 42 43 46 48 49 51 52 54 57 58 61 62 64 64 63 65 65 61 57 57 61 61 64 65 64 64 65 64 63 64 64
34 36 36 37 38 39 39 37 36 34 33 37 38 41 43 45 47 49 50 51 53 56 57 62 63 62 63 63 63 64 64 61 58 56 60 64 65 63 64 64 64 63 64
34 35 38 40 38 38 37 37 36 34 35 36 37 38 40 43 45 47 48 49 50 54 57 60 62 61 62 63 64 63 64 63 60 57 57 61 63 66 66 64 64 63 63
35 37 38 38 36 39 38 38 37 36 36 36 37 37 38 40 43 45 46 47 49 52 55 59 60 63 63 64 65 65 65 63 61 59 55 57 61 65 66 64 63 63 63